Simultaneous Nadir Overpasses (SNOs) Predictions

Prediction of SNOs between AQUA and METOP-B Satellite Orbit:

Table of predicted SNOs for the next 14.0 days since TLE Epoch: 1/20/2017
Index Date (AQUA) Time (AQUA) Lat,Lon (AQUA) SZA (AQUA ) Date (METOP-B) Time (METOP-B) Lat,Lon (METOP-B) SZA (METOP-B ) Distance(km) Time Diff (sec)
1 01/20/2017 17:40:21 73.65, -90.58 93.68 01/20/2017 17:39:08 73.59, -90.73 93.64 7.85 73
2 01/20/2017 18:29:48 -73.73, 76.88 86.24 01/20/2017 18:29:47 -73.74, 76.93 86.24 1.72 1
3 01/20/2017 19:19:17 73.80,-115.63 93.83 01/20/2017 19:20:26 73.77,-115.65 93.79 3.51 69
4 01/23/2017 13:14:38 73.65, -24.14 93.04 01/23/2017 13:13:27 73.67, -24.13 93.07 2.27 71
5 01/23/2017 14:04:05 -73.73, 143.32 86.88 01/23/2017 14:04:08 -73.71, 143.30 86.90 2.23 3
6 01/23/2017 14:53:34 73.80, -49.19 93.19 01/23/2017 14:54:46 73.80, -49.17 93.17 0.70 72
7 01/26/2017 08:48:55 73.66, 42.27 92.36 01/26/2017 08:47:48 73.65, 42.23 92.37 1.99 67
8 01/26/2017 09:38:22 -73.74,-150.26 87.56 01/26/2017 09:38:28 -73.74,-150.23 87.56 0.95 6
9 01/26/2017 10:27:52 73.86, 17.11 92.56 01/26/2017 10:29:05 73.87, 17.42 92.55 9.70 73
10 01/29/2017 04:23:11 73.67, 108.68 91.65 01/29/2017 04:22:07 73.67, 108.70 91.66 0.84 64
11 01/29/2017 05:12:38 -73.75, -83.85 88.28 01/29/2017 05:12:47 -73.76, -83.76 88.28 3.24 9
12 01/29/2017 06:02:11 74.03, 83.16 92.02 01/29/2017 06:03:21 74.04, 84.26 91.97 33.59 70
13 01/31/2017 23:57:28 73.70, 175.06 90.90 01/31/2017 23:56:27 73.69, 175.17 90.90 3.45 61
14 02/01/2017 00:46:54 -73.72, -17.35 89.09 02/01/2017 00:47:08 -73.74, -17.40 89.08 2.25 14




NCC Satellite Simultaneous Nadir Overpasses (SNOs) Prediction Service
